Location: Newark
(26.8229°N, 81.7649°W)
Time: 11:33:46
(UTC+00:00)

N. Korean satellite - Pass Details

Date: 22 January 2020
Orbit: 456 x 505 km, 97.2° (Epoch: 23 February)

Event Time Altitude Azimuth Distance (km) Brightness Sun altitude
Rises 11:47:29 0° 352° (N) 2,532 9.9 -6.9°
Reaches altitude 10° 11:49:53 10° 335° (NNW) 1,660 8.9 -6.4°
Maximum altitude 11:52:35 20° 286° (WNW) 1,156 7.9 -5.8°
Drops below altitude 10° 11:55:18 10° 237° (WSW) 1,674 8.9 -5.2°
Sets 11:57:45 0° 220° (SW) 2,561 10.0 -4.7°
